When you browse on this site, cookies collect data to enhance your experience and personalize the content and advertising you see.
Visit our Privacy Policy to learn more. By continuing to use the site, you agree to this use of cookies and data.
  • In Belgium
  • List of Countries
  • For 7 days
  • Water Temperature
  • Satellite Maps
  • Weather Map
  • Weather Widgets
  • user-avatar
    Login

    Hourly Weather Boussu

    Today, 16 December, Sunday

    Time Temperature Precipitation Wind Pressure Humidity
    00:00 -2°C° 1.1 mm 6 mps 753 mmHg 91%
    01:00 -2°C° 0.1 mm 6 mps 752 mmHg 92%
    02:00 -1°C° 0.1 mm 5 mps 752 mmHg 94%
    03:00 0°C° 0.1 mm 5 mps 752 mmHg 95%
    04:00 0°C° 0 mm 4 mps 752 mmHg 96%
    05:00 0°C° 0 mm 4 mps 752 mmHg 97%
    06:00 0°C° 0 mm 4 mps 752 mmHg 98%
    07:00 +1°C° 0.1 mm 3 mps 753 mmHg 98%
    08:00 +2°C° 0.1 mm 3 mps 753 mmHg 98%
    09:00 +2°C° 0.1 mm 3 mps 753 mmHg 98%
    10:00 +3°C° 0.1 mm 3 mps 753 mmHg 98%
    11:00 +3°C° 0.1 mm 4 mps 754 mmHg 97%
    12:00 +3°C° 0.1 mm 4 mps 754 mmHg 97%
    13:00 +3°C° 0 mm 4 mps 754 mmHg 97%
    14:00 +3°C° 0 mm 4 mps 754 mmHg 97%
    15:00 +3°C° 0 mm 3 mps 754 mmHg 97%
    16:00 +3°C° 0 mm 4 mps 754 mmHg 97%
    17:00 +1°C° 0 mm 4 mps 754 mmHg 97%
    18:00 +1°C° 0 mm 4 mps 754 mmHg 97%
    19:00 +1°C° 0 mm 4 mps 754 mmHg 96%
    20:00 +3°C° 0 mm 4 mps 754 mmHg 96%
    21:00 +3°C° 0 mm 4 mps 754 mmHg 96%
    22:00 +3°C° 0.2 mm 4 mps 754 mmHg 96%
    23:00 +2°C° 0.2 mm 5 mps 754 mmHg 95%

    Tomorrow, 17 December, Monday

    Time Temperature Precipitation Wind Pressure Humidity
    00:00 +2°C° 0.2 mm 5 mps 754 mmHg 95%
    01:00 +2°C° 0.3 mm 5 mps 754 mmHg 95%
    02:00 +3°C° 0.3 mm 5 mps 754 mmHg 95%
    03:00 +3°C° 0.3 mm 5 mps 754 mmHg 94%
    04:00 +4°C° 0.1 mm 4 mps 755 mmHg 95%
    05:00 +4°C° 0.1 mm 4 mps 755 mmHg 95%
    06:00 +4°C° 0.1 mm 4 mps 756 mmHg 95%
    07:00 +4°C° 0.1 mm 4 mps 757 mmHg 96%
    08:00 +4°C° 0.1 mm 3 mps 758 mmHg 96%
    09:00 +4°C° 0.1 mm 3 mps 759 mmHg 96%
    10:00 +5°C° 0 mm 3 mps 759 mmHg 93%
    11:00 +6°C° 0 mm 4 mps 760 mmHg 90%
    12:00 +6°C° 0 mm 4 mps 760 mmHg 88%
    13:00 +7°C° 0 mm 3 mps 761 mmHg 88%
    14:00 +7°C° 0 mm 3 mps 761 mmHg 89%
    15:00 +6°C° 0 mm 2 mps 762 mmHg 89%
    16:00 +5°C° 0 mm 3 mps 762 mmHg 91%
    17:00 +4°C° 0 mm 3 mps 763 mmHg 92%
    18:00 +4°C° 0 mm 3 mps 763 mmHg 93%
    19:00 +4°C° 0 mm 3 mps 764 mmHg 93%
    20:00 +3°C° 0 mm 3 mps 764 mmHg 94%
    21:00 +3°C° 0 mm 4 mps 764 mmHg 94%
    22:00 +3°C° 0 mm 4 mps 764 mmHg 94%
    23:00 +3°C° 0 mm 4 mps 764 mmHg 93%

    Day after tomorrow, 18 December, Tuesday

    Time Temperature Precipitation Wind Pressure Humidity
    00:00 +3°C° 0 mm 4 mps 764 mmHg 93%
    01:00 +3°C° 0 mm 4 mps 764 mmHg 94%
    02:00 +2°C° 0 mm 5 mps 763 mmHg 94%
    03:00 +2°C° 0 mm 5 mps 763 mmHg 94%
    04:00 +2°C° 0 mm 5 mps 763 mmHg 94%
    05:00 +2°C° 0 mm 5 mps 762 mmHg 94%
    06:00 +2°C° 0 mm 5 mps 762 mmHg 94%
    07:00 +2°C° 0 mm 6 mps 762 mmHg 91%
    08:00 +3°C° 0 mm 6 mps 761 mmHg 89%
    09:00 +3°C° 0 mm 6 mps 761 mmHg 86%
    10:00 +4°C° 0 mm 7 mps 760 mmHg 80%
    11:00 +4°C° 0 mm 7 mps 759 mmHg 73%
    12:00 +5°C° 0 mm 8 mps 758 mmHg 66%
    13:00 +5°C° 0 mm 8 mps 758 mmHg 67%
    14:00 +5°C° 0 mm 7 mps 757 mmHg 67%
    15:00 +4°C° 0 mm 7 mps 756 mmHg 67%
    16:00 +4°C° 0 mm 7 mps 756 mmHg 69%
    17:00 +4°C° 0 mm 8 mps 755 mmHg 71%
    18:00 +4°C° 0 mm 8 mps 755 mmHg 73%
    19:00 +4°C° 0 mm 7 mps 755 mmHg 73%
    20:00 +4°C° 0 mm 7 mps 754 mmHg 74%
    21:00 +5°C° 0 mm 7 mps 754 mmHg 75%
    22:00 +5°C° 0.7 mm 7 mps 754 mmHg 79%
    23:00 +5°C° 0.7 mm 7 mps 754 mmHg 83%

    19 December, Wednesday

    Time Temperature Precipitation Wind Pressure Humidity
    00:00 +5°C° 0.7 mm 7 mps 754 mmHg 88%
    01:00 +5°C° 0.3 mm 7 mps 754 mmHg 89%
    02:00 +7°C° 0.3 mm 6 mps 754 mmHg 90%
    03:00 +7°C° 0.3 mm 5 mps 754 mmHg 91%
    04:00 +6°C° 0 mm 5 mps 755 mmHg 91%
    05:00 +6°C° 0 mm 5 mps 755 mmHg 92%
    06:00 +5°C° 0 mm 5 mps 755 mmHg 93%
    07:00 +5°C° 0 mm 4 mps 755 mmHg 93%
    08:00 +5°C° 0 mm 4 mps 756 mmHg 93%
    09:00 +5°C° 0 mm 4 mps 756 mmHg 93%
    10:00 +6°C° 0 mm 4 mps 756 mmHg 90%
    11:00 +7°C° 0 mm 4 mps 756 mmHg 87%
    12:00 +7°C° 0 mm 4 mps 755 mmHg 84%
    13:00 +7°C° 0 mm 4 mps 755 mmHg 85%
    14:00 +7°C° 0 mm 4 mps 755 mmHg 86%
    15:00 +7°C° 0 mm 4 mps 755 mmHg 88%
    16:00 +7°C° 0 mm 4 mps 755 mmHg 89%
    17:00 +6°C° 0 mm 4 mps 755 mmHg 89%
    18:00 +6°C° 0 mm 4 mps 755 mmHg 90%
    19:00 +7°C° 0 mm 3 mps 756 mmHg 91%
    20:00 +5°C° 0 mm 3 mps 756 mmHg 93%
    21:00 +5°C° 0 mm 3 mps 756 mmHg 94%
    22:00 +5°C° 0 mm 3 mps 756 mmHg 94%
    23:00 +4°C° 0 mm 3 mps 756 mmHg 95%

    20 December, Thursday

    Time Temperature Precipitation Wind Pressure Humidity
    00:00 +4°C° 0 mm 3 mps 756 mmHg 95%
    01:00 +4°C° 0 mm 3 mps 756 mmHg 95%
    02:00 +3°C° 0 mm 3 mps 757 mmHg 94%
    03:00 +3°C° 0 mm 3 mps 757 mmHg 94%
    04:00 +3°C° 0 mm 3 mps 757 mmHg 94%
    05:00 +3°C° 0 mm 3 mps 757 mmHg 94%
    06:00 +2°C° 0 mm 3 mps 758 mmHg 94%
    07:00 +3°C° 0 mm 4 mps 758 mmHg 93%
    08:00 +3°C° 0 mm 4 mps 758 mmHg 93%
    09:00 +3°C° 0 mm 4 mps 759 mmHg 92%
    10:00 +3°C° 0 mm 5 mps 759 mmHg 90%
    11:00 +5°C° 0 mm 5 mps 759 mmHg 87%
    12:00 +5°C° 0 mm 5 mps 759 mmHg 84%
    13:00 +5°C° 0 mm 5 mps 759 mmHg 85%
    14:00 +5°C° 0 mm 5 mps 758 mmHg 86%
    15:00 +5°C° 0 mm 5 mps 758 mmHg 87%
    16:00 +5°C° 0.2 mm 5 mps 758 mmHg 87%
    17:00 +5°C° 0.2 mm 5 mps 759 mmHg 88%
    18:00 +5°C° 0.2 mm 5 mps 759 mmHg 88%
    19:00 +5°C° 0.1 mm 5 mps 759 mmHg 89%
    20:00 +5°C° 0.1 mm 5 mps 759 mmHg 91%
    21:00 +5°C° 0.1 mm 5 mps 759 mmHg 92%
    22:00 +5°C° 0.1 mm 5 mps 759 mmHg 92%
    23:00 +5°C° 0.1 mm 5 mps 759 mmHg 93%

    21 December, Friday

    Time Temperature Precipitation Wind Pressure Humidity
    00:00 +5°C° 0.1 mm 4 mps 759 mmHg 93%
    01:00 +4°C° 0 mm 4 mps 759 mmHg 94%
    02:00 +4°C° 0 mm 4 mps 758 mmHg 94%
    03:00 +4°C° 0 mm 4 mps 758 mmHg 94%
    04:00 +4°C° 0.4 mm 4 mps 758 mmHg 94%
    05:00 +5°C° 0.4 mm 5 mps 757 mmHg 93%
    06:00 +5°C° 0.4 mm 5 mps 757 mmHg 93%
    07:00 +4°C° 1.2 mm 6 mps 756 mmHg 92%
    08:00 +4°C° 1.2 mm 7 mps 756 mmHg 90%
    09:00 +5°C° 1.2 mm 7 mps 755 mmHg 89%
    10:00 +5°C° 1.4 mm 8 mps 754 mmHg 88%
    11:00 +5°C° 1.4 mm 9 mps 753 mmHg 88%
    12:00 +6°C° 1.4 mm 9 mps 752 mmHg 87%
    13:00 +6°C° 0.8 mm 9 mps 751 mmHg 88%
    14:00 +7°C° 0.8 mm 9 mps 751 mmHg 89%
    15:00 +7°C° 0.8 mm 8 mps 750 mmHg 90%
    16:00 +9°C° 0.3 mm 8 mps 751 mmHg 88%
    17:00 +9°C° 0.3 mm 7 mps 751 mmHg 85%
    18:00 +9°C° 0.3 mm 7 mps 752 mmHg 83%
    19:00 +9°C° 0 mm 6 mps 753 mmHg 85%
    20:00 +8°C° 0 mm 6 mps 753 mmHg 87%
    21:00 +7°C° 0 mm 5 mps 754 mmHg 88%
    22:00 +7°C° 0 mm 5 mps 754 mmHg 90%
    23:00 +7°C° 0 mm 5 mps 755 mmHg 91%
    Show more